TimeMST,TemperatureF,Dew PointF,Humidity,Sea Level PressureIn,VisibilityMPH,Wind Direction,Wind SpeedMPH,Gust SpeedMPH,PrecipitationIn,Events,Conditions,WindDirDegrees,DateUTC
12:51 AM,84.9,21.0,10,29.60,10.0,NW,5.8,-,N/A,,Clear,320,2013-04-30 07:51:00
1:51 AM,84.0,18.0,9,29.60,10.0,NNW,4.6,-,N/A,,Clear,330,2013-04-30 08:51:00
2:51 AM,78.1,26.1,15,29.62,10.0,East,5.8,-,N/A,,Clear,100,2013-04-30 09:51:00
3:51 AM,75.9,27.0,16,29.63,10.0,East,3.5,-,N/A,,Clear,90,2013-04-30 10:51:00
4:51 AM,73.9,25.0,16,29.63,10.0,ESE,5.8,-,N/A,,Clear,110,2013-04-30 11:51:00
5:51 AM,72.0,25.0,17,29.65,10.0,East,8.1,-,N/A,,Scattered Clouds,100,2013-04-30 12:51:00
6:51 AM,73.9,25.0,16,29.66,10.0,East,11.5,-,N/A,,Scattered Clouds,100,2013-04-30 13:51:00
7:51 AM,78.1,25.0,14,29.68,10.0,ESE,10.4,-,N/A,,Scattered Clouds,120,2013-04-30 14:51:00
8:51 AM,84.0,23.0,11,29.68,10.0,SE,10.4,-,N/A,,Scattered Clouds,140,2013-04-30 15:51:00
9:51 AM,88.0,26.1,11,29.68,10.0,SE,8.1,-,N/A,,Scattered Clouds,130,2013-04-30 16:51:00
10:51 AM,93.2,19.4,7,29.73,10.0,Calm,Calm,-,N/A,,Partly Cloudy,0,2013-04-30 17:51:00
11:51 AM,96.1,19.9,6,29.66,10.0,South,6.9,-,N/A,,Partly Cloudy,180,2013-04-30 18:51:00
12:51 PM,96.1,18.0,6,29.64,10.0,Variable,4.6,-,N/A,,Partly Cloudy,0,2013-04-30 19:51:00
1:51 PM,98.1,15.1,5,29.63,10.0,West,12.7,20.7,N/A,,Partly Cloudy,270,2013-04-30 20:51:00
2:51 PM,100.9,14.0,4,29.61,10.0,West,17.3,24.2,N/A,,Partly Cloudy,260,2013-04-30 21:51:00
3:51 PM,99.0,17.1,5,29.58,10.0,WSW,16.1,24.2,N/A,,Partly Cloudy,250,2013-04-30 22:51:00
4:51 PM,99.0,14.0,5,29.57,10.0,West,23.0,31.1,N/A,,Partly Cloudy,260,2013-04-30 23:51:00
5:51 PM,97.0,15.1,5,29.58,10.0,West,24.2,28.8,N/A,,Partly Cloudy,270,2013-05-01 00:51:00
6:51 PM,93.9,12.0,5,29.59,10.0,West,20.7,27.6,N/A,,Partly Cloudy,260,2013-05-01 01:51:00
7:51 PM,91.0,12.9,6,29.61,10.0,WSW,12.7,21.9,N/A,,Scattered Clouds,250,2013-05-01 02:51:00
8:51 PM,89.1,17.1,7,29.64,10.0,West,10.4,-,N/A,,Scattered Clouds,270,2013-05-01 03:51:00
9:51 PM,87.1,19.0,8,29.65,10.0,West,12.7,-,N/A,,Partly Cloudy,270,2013-05-01 04:51:00
10:51 PM,82.9,19.9,10,29.66,10.0,Calm,Calm,-,N/A,,Clear,0,2013-05-01 05:51:00
11:51 PM,82.9,19.9,10,29.68,10.0,Calm,Calm,-,N/A,,Clear,0,2013-05-01 06:51:00